• MPC Preparation (Info)

  • MPEC 2014-U139: 2014 UZ175

    The following Minor Planet Electronic Circular may be linked-to from your own Web pages, but must not otherwise be redistributed electronically.

    A form allowing access to any MPEC is at the bottom of this page.


    Read MPEC 2014-U138 Read MPEC 2014-U140


    M.P.E.C. 2014-U139                               Issued 2014 Oct. 31, 14:28 UT
    
         The Minor Planet Electronic Circulars contain information on unusual
             minor planets and routine data on comets.  They are published
       on behalf of Commission 20 of the International Astronomical Union by the
              Minor Planet Center, Smithsonian Astrophysical Observatory,
                              Cambridge, MA 02138, U.S.A.
    
                 Prepared using the Tamkin Foundation Computer Network
    
                                  MPC@CFA.HARVARD.EDU
                URL https://www.minorplanetcenter.net/    ISSN 1523-6714
    
                                      2014 UZ175
    
    Observations:
         K14UH5Z* C2014 10 27.35834 01 43 30.383-12 42 40.52         20.7 wLEU139F51
         K14UH5Z  C2014 10 27.37160 01 43 48.543-12 40 44.16         20.7 wLEU139F51
         K14UH5Z  C2014 10 27.38488 01 44 06.571-12 38 47.43         20.7 wLEU139F51
         K14UH5Z  C2014 10 27.39815 01 44 24.507-12 36 50.35         20.6 wLEU139F51
         K14UH5Z _C2014 10 28.53662802 08 17.911-10 10 40.11         20.3 RtEU139568
         K14UH5Z _C2014 10 28.53788202 08 19.110-10 10 31.27         20.2 RtEU139568
         K14UH5Z _C2014 10 28.53913402 08 20.284-10 10 22.67         20.0 RtEU139568
         K14UH5Z _C2014 10 28.54045002 08 21.537-10 10 13.57         20.2 RtEU139568
         K14UH5Z _C2014 10 28.54170302 08 22.725-10 10 05.04         20.1 RtEU139568
         K14UH5Z _C2014 10 28.54295602 08 23.908-10 09 56.44         20.0 RtEU139568
         K14UH5Z KC2014 10 31.28806 02 42 29.59 -06 28 40.3          20.9 RoEU139291
         K14UH5Z KC2014 10 31.29010 02 42 30.44 -06 28 32.8          21.1 RoEU139291
         K14UH5Z KC2014 10 31.29214 02 42 31.28 -06 28 25.7          20.9 RoEU139291
    
    Observer details:
    291 LPL/Spacewatch II.  Observer R. A. Mastaler.  1.8-m f/2.7 reflector + CCD.
    568 Mauna Kea.  Observers R. J. Wainscoat, P. Forshay.  Measurers M. Micheli,
        B. Bolin.  3.6-m Canada-France-Hawaii Telescope + CCD.
    F51 Pan-STARRS 1, Haleakala.  Observers B. Gibson, T. Goggia, N. Primak,
        A. Schultz, M. Willman.  Measurers B. Bolin, K. Chambers, S. Chastel,
        L. Denneau, H. Flewelling, M. Huber, E. Magnier, E. Schunova, R. Wainscoat,
        C. Waters.  1.8-m Ritchey-Chretien + CCD.
    
    Orbital elements:
    2014 UZ175                                               Earth MOID = 0.0003 AU
    Epoch 2014 Dec. 9.0 TT = JDT 2457000.5                  MPC
    M  51.29580              (2000.0)            P               Q
    n   0.64464060     Peri.  143.81131     +0.98668176     +0.16016070
    a   1.3271630      Node   207.01415     -0.16003516     +0.92453911
    e   0.2824481      Incl.    3.58724     -0.02911784     +0.34579760
    P   1.53           H   27.8           G   0.15           U   6
    Residuals in seconds of arc
    141027 F51  0.3+  0.2+    141028 568  0.2+  0.1-    141031 291  0.0   0.1-
    141027 F51  0.2+  0.1+    141028 568  0.0   0.1-    141031 291  0.0   0.2+
    141027 F51  0.3-  0.1-    141028 568  0.1+  0.1-    141031 291  0.1-  0.1+
    141027 F51  0.3-  0.1-    141028 568  0.1+  0.2-
    141028 568  0.0   0.3-    141028 568  0.0   0.2-
    
    Ephemeris:
    2014 UZ175               a,e,i = 1.33, 0.28, 4                   q = 0.9523
    Date    TT    R. A. (2000) Decl.     Delta      r     Elong.  Phase     V
    2014 10 01    16 13 05.4 -04 26 26   0.08541 0.9565    56.2   119.5    27.2
    ...
    2014 10 16    17 13 39.8 -10 03 15   0.02980 0.9811    56.9   121.6    25.1
    ...
    2014 10 24    22 54 53.0 -23 24 10   0.01134 1.0012   124.2    55.3    20.1
    ...
    2014 10 30    02 29 35.4 -07 52 50   0.02777 1.0190   158.2    21.2    21.1
    2014 10 31    02 39 54.4 -06 43 23   0.03134 1.0222   158.7    20.6    21.3
    2014 11 01    02 48 03.2 -05 46 47   0.03499 1.0254   159.1    20.2    21.6
    ...
    2014 11 07    03 14 17.7 -02 25 50   0.05788 1.0458   160.3    18.6    22.7
    ...
    2014 11 15    03 27 06.0 -00 10 28   0.09050 1.0754   161.4    17.1    23.6
    ...
    2014 11 30    03 35 57.9 +02 49 33   0.1602  1.1365   158.1    18.9    25.1
    
    A. U. Tomatic                (C) Copyright 2014 MPC           M.P.E.C. 2014-U139
    

    Read MPEC 2014-U138 Read MPEC 2014-U140


    MPEC number:

    Enter an MPEC number in one of the following forms:

    • 1997-B01 (the full form)
    • J97B01 (the packed version of the full form)
    • B01 (the abbreviated form)